When you browse on this site, cookies collect data to enhance your experience and personalize the content and advertising you see.
Visit our Privacy Policy to learn more. By continuing to use the site, you agree to this use of cookies and data.
  • In Lithuania
  • List of Countries
  • For 7 days
  • Water Temperature
  • Weather Map
  • Weather Widgets
  • user-avatar
    Login

    Hourly Weather Naftalan

    Today, 13 December, Friday

    Time Temperature Precipitation Wind Pressure Humidity
    00:00 +10°C° 0.1 mm 5 mps 766 mmHg 83%
    01:00 +10°C° 0.3 mm 5 mps 765 mmHg 84%
    02:00 +10°C° 0.3 mm 5 mps 765 mmHg 86%
    03:00 +10°C° 0 mm 4 mps 765 mmHg 87%
    04:00 +10°C° 0.5 mm 4 mps 765 mmHg 86%
    05:00 +10°C° 0.5 mm 4 mps 765 mmHg 86%
    06:00 +8°C° 0.5 mm 4 mps 765 mmHg 86%
    07:00 +8°C° 0.4 mm 4 mps 765 mmHg 84%
    08:00 +8°C° 0.4 mm 4 mps 765 mmHg 82%
    09:00 +9°C° 0 mm 3 mps 765 mmHg 81%
    10:00 +9°C° 0.3 mm 3 mps 765 mmHg 80%
    11:00 +8°C° 0.3 mm 4 mps 765 mmHg 78%
    12:00 +8°C° 0.3 mm 4 mps 764 mmHg 77%
    13:00 +9°C° 0.1 mm 3 mps 764 mmHg 76%
    14:00 +9°C° 0.1 mm 3 mps 764 mmHg 75%
    15:00 +9°C° 0.1 mm 3 mps 764 mmHg 74%
    16:00 +9°C° 0.1 mm 2 mps 764 mmHg 74%
    17:00 +9°C° 0.1 mm 2 mps 765 mmHg 75%
    18:00 +10°C° 0.1 mm 1 mps 765 mmHg 76%
    19:00 +10°C° 0 mm 1 mps 765 mmHg 76%
    20:00 +9°C° 0 mm 2 mps 765 mmHg 76%
    21:00 +9°C° 0 mm 2 mps 765 mmHg 76%
    22:00 +9°C° 0.1 mm 2 mps 765 mmHg 76%
    23:00 +9°C° 0.1 mm 2 mps 765 mmHg 75%

    Tomorrow, 14 December, Saturday

    Time Temperature Precipitation Wind Pressure Humidity
    00:00 +9°C° 0.1 mm 2 mps 765 mmHg 75%
    01:00 +9°C° 0 mm 2 mps 765 mmHg 74%
    02:00 +9°C° 0 mm 3 mps 765 mmHg 73%
    03:00 +9°C° 0 mm 3 mps 766 mmHg 72%
    04:00 +9°C° 0 mm 3 mps 766 mmHg 72%
    05:00 +8°C° 0 mm 3 mps 766 mmHg 72%
    06:00 +8°C° 0 mm 3 mps 766 mmHg 72%
    07:00 +8°C° 0 mm 3 mps 766 mmHg 71%
    08:00 +9°C° 0 mm 2 mps 766 mmHg 69%
    09:00 +9°C° 0 mm 2 mps 767 mmHg 68%
    10:00 +10°C° 0 mm 2 mps 766 mmHg 66%
    11:00 +10°C° 0 mm 2 mps 766 mmHg 63%
    12:00 +12°C° 0 mm 1 mps 766 mmHg 61%
    13:00 +12°C° 0 mm 1 mps 766 mmHg 62%
    14:00 +13°C° 0 mm 1 mps 766 mmHg 64%
    15:00 +13°C° 0 mm 1 mps 766 mmHg 65%
    16:00 +12°C° 0 mm 1 mps 766 mmHg 71%
    17:00 +12°C° 0 mm 2 mps 766 mmHg 76%
    18:00 +10°C° 0 mm 2 mps 766 mmHg 82%
    19:00 +10°C° 0 mm 2 mps 766 mmHg 84%
    20:00 +10°C° 0 mm 2 mps 767 mmHg 86%
    21:00 +10°C° 0 mm 2 mps 767 mmHg 88%
    22:00 +10°C° 0 mm 2 mps 767 mmHg 88%
    23:00 +10°C° 0 mm 2 mps 766 mmHg 88%

    Day after tomorrow, 15 December, Sunday

    Time Temperature Precipitation Wind Pressure Humidity
    00:00 +9°C° 0 mm 2 mps 766 mmHg 88%
    01:00 +9°C° 0 mm 2 mps 766 mmHg 88%
    02:00 +9°C° 0 mm 2 mps 766 mmHg 88%
    03:00 +9°C° 0 mm 2 mps 766 mmHg 88%
    04:00 +8°C° 0 mm 2 mps 766 mmHg 86%
    05:00 +8°C° 0 mm 2 mps 766 mmHg 85%
    06:00 +8°C° 0 mm 2 mps 766 mmHg 84%
    07:00 +8°C° 0 mm 2 mps 766 mmHg 79%
    08:00 +9°C° 0 mm 2 mps 766 mmHg 75%
    09:00 +9°C° 0 mm 2 mps 766 mmHg 70%
    10:00 +10°C° 0 mm 2 mps 766 mmHg 68%
    11:00 +12°C° 0 mm 2 mps 765 mmHg 65%
    12:00 +13°C° 0 mm 1 mps 765 mmHg 62%
    13:00 +13°C° 0 mm 1 mps 765 mmHg 62%
    14:00 +13°C° 0 mm 1 mps 765 mmHg 63%
    15:00 +12°C° 0 mm 0 mps 765 mmHg 63%
    16:00 +12°C° 0 mm 0 mps 765 mmHg 68%
    17:00 +11°C° 0 mm 0 mps 766 mmHg 72%
    18:00 +10°C° 0 mm 0 mps 766 mmHg 77%
    19:00 +10°C° 0 mm 0 mps 766 mmHg 77%
    20:00 +10°C° 0 mm 0 mps 767 mmHg 78%
    21:00 +11°C° 0 mm 1 mps 767 mmHg 78%
    22:00 +11°C° 0 mm 1 mps 767 mmHg 76%
    23:00 +10°C° 0 mm 2 mps 767 mmHg 74%

    16 December, Monday

    Time Temperature Precipitation Wind Pressure Humidity
    00:00 +10°C° 0 mm 2 mps 767 mmHg 72%
    01:00 +10°C° 0 mm 2 mps 768 mmHg 75%
    02:00 +10°C° 0 mm 3 mps 768 mmHg 78%
    03:00 +10°C° 0 mm 3 mps 768 mmHg 81%
    04:00 +10°C° 0 mm 3 mps 768 mmHg 84%
    05:00 +10°C° 0 mm 3 mps 768 mmHg 87%
    06:00 +9°C° 0 mm 3 mps 769 mmHg 90%
    07:00 +10°C° 0 mm 3 mps 769 mmHg 88%
    08:00 +10°C° 0 mm 4 mps 769 mmHg 86%
    09:00 +11°C° 0 mm 4 mps 770 mmHg 83%
    10:00 +11°C° 0 mm 4 mps 770 mmHg 80%
    11:00 +12°C° 0 mm 4 mps 770 mmHg 77%
    12:00 +12°C° 0 mm 4 mps 770 mmHg 73%
    13:00 +12°C° 0 mm 4 mps 770 mmHg 73%
    14:00 +12°C° 0 mm 4 mps 770 mmHg 73%
    15:00 +12°C° 0 mm 3 mps 770 mmHg 73%
    16:00 +11°C° 0 mm 3 mps 770 mmHg 75%
    17:00 +11°C° 0 mm 3 mps 770 mmHg 76%
    18:00 +12°C° 0 mm 2 mps 771 mmHg 78%
    19:00 +10°C° 0 mm 3 mps 771 mmHg 80%
    20:00 +10°C° 0 mm 3 mps 771 mmHg 81%
    21:00 +10°C° 0 mm 4 mps 772 mmHg 82%
    22:00 +10°C° 0 mm 4 mps 772 mmHg 82%
    23:00 +9°C° 0 mm 5 mps 772 mmHg 83%

    17 December, Tuesday

    Time Temperature Precipitation Wind Pressure Humidity
    00:00 +8°C° 0 mm 5 mps 772 mmHg 83%
    01:00 +8°C° 0 mm 5 mps 772 mmHg 84%
    02:00 +8°C° 0 mm 6 mps 772 mmHg 84%
    03:00 +8°C° 0 mm 6 mps 772 mmHg 85%
    04:00 +8°C° 0 mm 6 mps 772 mmHg 85%
    05:00 +7°C° 0 mm 6 mps 772 mmHg 85%
    06:00 +7°C° 0 mm 6 mps 772 mmHg 85%
    07:00 +8°C° 0 mm 6 mps 773 mmHg 81%
    08:00 +8°C° 0 mm 7 mps 774 mmHg 77%
    09:00 +9°C° 0 mm 8 mps 774 mmHg 73%
    10:00 +10°C° 0 mm 8 mps 774 mmHg 71%
    11:00 +10°C° 0 mm 8 mps 774 mmHg 68%
    12:00 +11°C° 0 mm 8 mps 774 mmHg 65%
    13:00 +11°C° 0 mm 7 mps 773 mmHg 65%
    14:00 +11°C° 0 mm 6 mps 773 mmHg 65%
    15:00 +11°C° 0 mm 6 mps 773 mmHg 65%
    16:00 +10°C° 0 mm 5 mps 773 mmHg 69%
    17:00 +9°C° 0 mm 5 mps 774 mmHg 72%
    18:00 +10°C° 0 mm 4 mps 774 mmHg 76%
    19:00 +10°C° 0 mm 4 mps 774 mmHg 77%
    20:00 +8°C° 0 mm 4 mps 775 mmHg 79%
    21:00 +8°C° 0 mm 4 mps 775 mmHg 80%
    22:00 +8°C° 0 mm 4 mps 775 mmHg 81%
    23:00 +8°C° 0 mm 4 mps 775 mmHg 83%

    18 December, Wednesday

    Time Temperature Precipitation Wind Pressure Humidity
    00:00 +8°C° 0 mm 3 mps 775 mmHg 84%
    01:00 +8°C° 0 mm 3 mps 775 mmHg 85%
    02:00 +8°C° 0 mm 2 mps 775 mmHg 86%
    03:00 +7°C° 0 mm 2 mps 775 mmHg 87%
    04:00 +8°C° 0 mm 1 mps 775 mmHg 87%
    05:00 +8°C° 0 mm 1 mps 775 mmHg 87%
    06:00 +8°C° 0 mm 1 mps 775 mmHg 88%
    07:00 +9°C° 0 mm 1 mps 775 mmHg 85%
    08:00 +9°C° 0 mm 1 mps 775 mmHg 82%
    09:00 +10°C° 0 mm 1 mps 775 mmHg 79%
    10:00 +11°C° 0 mm 1 mps 775 mmHg 75%
    11:00 +12°C° 0 mm 1 mps 775 mmHg 72%
    12:00 +12°C° 0 mm 1 mps 774 mmHg 68%
    13:00 +13°C° 0 mm 1 mps 774 mmHg 67%
    14:00 +13°C° 0 mm 1 mps 774 mmHg 66%
    15:00 +13°C° 0 mm 1 mps 774 mmHg 64%
    16:00 +13°C° 0 mm 2 mps 774 mmHg 69%
    17:00 +11°C° 0 mm 3 mps 774 mmHg 74%
    18:00 +10°C° 0 mm 3 mps 775 mmHg 78%
    19:00 +10°C° 0 mm 3 mps 775 mmHg 80%
    20:00 +10°C° 0 mm 3 mps 775 mmHg 81%
    21:00 +10°C° 0 mm 3 mps 775 mmHg 83%
    22:00 +9°C° 0 mm 3 mps 775 mmHg 84%
    23:00 +9°C° 0 mm 2 mps 774 mmHg 85%
    Show more